Location: Seven Kings
(51.5667°N, 0.1000°E)
Time: 03:33:50
(UTC+00:00)

Meteor 2-10 Rocket - Pass Details

Date: 29 October 2020
Orbit: 733 x 885 km, 81.2° (Epoch: 25 November)

Event Time Altitude Azimuth Distance (km) Brightness Sun altitude
Rises 17:49:32 0° 167° (SSE) 3,284 6.7 -11.7°
Reaches altitude 10° 17:52:04 10° 160° (SSE) 2,335 5.9 -12.1°
Maximum altitude 17:56:53 39° 93° (E) 1,143 3.9 -12.8°
Drops below altitude 10° 18:01:36 10° 26° (NNE) 2,278 5.7 -13.6°
Sets 18:04:01 0° 19° (NNE) 3,194 6.5 -14.0°
